Location: Unspecified
(35.7250°N, 0.0000°E)
Time: 22:20:36
(UTC+00:00)

Tiros 1 - Pass Details

Date: 26 June 2019
Orbit: 630 x 664 km, 48.4° (Epoch: 21 October)

Event Time Altitude Azimuth Distance (km) Brightness Sun altitude
Rises 02:50:14 0° 310° (NW) 2,932 10.5 -18.9°
Reaches altitude 10° 02:52:45 10° 320° (NW) 2,017 9.8 -18.5°
Maximum altitude 02:56:59 34° 25° (NNE) 1,040 8.8 -18.0°
Drops below altitude 10° 03:01:11 10° 91° (E) 2,002 10.2 -17.4°
Sets 03:03:40 0° 101° (E) 2,907 11.0 -17.1°
